Dewpoint
50 43 44 37 17 12 5 8 17 17 16 20 24 22 19 19 20 29 64 65 67 66 69 69 74 74 74 73 72 73 73 73 73 73 73 72 72 71 71 71 70 69 70 70 68 68 69 69 69
45 41 40 29 10 1 3 13 15 16 16 25 25 22 19 18 36 48 62 67 67 67 69 68 73 73 73 73 72 72 72 72 72 72 73 72 72 71 71 71 70 70 70 70 70 70 70 69 69
41 35 33 22 11 3 11 17 19 20 20 26 22 26 28 42 53 58 62 65 67 68 69 68 73 73 73 72 72 72 72 72 73 73 73 72 71 71 71 70 70 70 70 70 70 70 70 68 68
39 35 29 20 10 15 16 17 21 20 19 21 21 20 40 48 52 60 66 66 66 67 69 70 72 72 73 73 72 72 71 71 72 72 72 72 72 71 71 71 70 70 70 70 70 70 70 70 69
37 32 18 17 14 17 19 22 20 17 18 19 20 21 33 37 45 55 61 65 62 63 67 69 70 71 71 72 72 72 72 72 72 71 71 71 71 71 71 70 71 71 70 69 70 69 70 70 70
32 30 14 11 12 17 22 25 23 20 23 25 23 23 32 39 40 45 52 50 52 54 55 57 62 69 70 70 71 72 72 72 71 71 71 71 71 71 70 71 71 71 70 69 70 70 70 70 69
27 25 16 14 13 18 25 25 27 26 27 29 31 24 29 37 40 43 44 45 46 48 49 49 51 56 61 68 70 70 71 71 71 72 72 71 70 70 71 71 71 70 70 69 70 70 69 69 69
36 29 21 22 16 21 30 28 30 28 28 33 35 33 34 36 39 42 42 42 43 44 45 45 47 50 54 58 66 68 69 69 70 70 70 69 68 69 70 70 70 70 70 69 69 69 69 69 69
38 23 18 19 20 23 31 28 30 29 34 33 34 34 35 36 37 39 40 39 40 40 41 42 43 46 49 52 57 63 67 67 68 68 67 67 67 66 67 66 68 69 69 69 69 69 68 67 68
34 25 22 26 28 30 27 27 26 28 31 30 31 32 33 33 33 35 36 36 37 37 38 39 41 43 45 46 51 59 65 67 65 64 64 66 66 64 64 64 67 68 68 68 69 68 67 66 59
36 28 31 32 32 30 28 25 26 26 26 27 29 29 29 29 30 30 32 33 34 35 36 38 38 41 42 44 47 52 57 64 67 65 65 65 68 67 68 66 69 65 65 64 64 64 59 58 57
31 32 31 27 25 25 28 25 24 25 25 27 29 28 27 26 26 27 28 29 31 32 33 35 37 38 39 41 43 46 53 56 62 66 66 67 67 67 67 67 65 64 62 61 61 58 58 56 53
30 32 21 22 21 27 27 24 22 22 25 26 25 26 24 24 24 25 26 28 28 30 31 33 34 36 36 38 40 43 46 51 54 59 66 66 66 66 67 68 68 67 63 60 61 59 60 54 52
32 23 17 16 16 21 24 21 24 20 21 22 23 25 23 22 22 23 24 25 26 27 29 31 32 33 34 36 38 40 43 47 53 56 60 65 66 66 67 67 67 67 67 65 62 60 58 55 53
34 28 23 12 11 9 23 22 18 18 18 19 19 22 23 20 20 21 22 23 24 25 28 29 30 32 32 34 36 37 40 43 50 51 54 58 65 65 67 66 67 67 67 65 64 62 58 57 56
25 29 24 9 8 7 13 18 18 17 16 16 17 18 20 21 18 17 17 21 23 23 24 27 28 30 31 32 34 35 38 41 43 49 53 55 57 64 65 65 65 66 66 66 65 63 59 58 57
12 10 10 6 5 4 8 14 16 16 14 13 14 15 17 18 17 16 16 16 21 22 22 24 27 28 29 31 32 34 35 37 39 46 50 51 53 57 64 64 64 65 65 64 64 63 61 59 58
9 -4 -3 -2 1 1 7 13 13 13 11 10 11 12 13 16 16 15 14 15 17 19 21 21 24 26 28 29 30 31 33 34 39 40 47 45 49 49 55 65 64 62 63 63 63 62 62 60 59
-3 -4 -5 -3 0 -2 10 11 10 9 10 8 9 9 10 13 14 15 14 15 16 17 19 19 20 24 26 27 28 29 29 32 34 37 40 41 44 46 50 55 64 64 62 61 62 62 61 61 60
-6 -9 -8 -6 1 -3 5 9 10 7 6 7 7 8 8 9 9 11 15 13 14 15 17 19 19 21 24 25 27 28 29 31 32 35 36 39 41 43 46 51 59 63 62 61 62 62 60 60 60
-8 -6 -7 -8 -3 -2 0 6 8 6 3 3 4 8 10 11 11 11 12 16 15 15 17 19 20 20 21 23 25 27 28 29 30 31 33 36 38 41 45 47 50 60 61 60 61 62 60 57 59
-12 -2 -4 -2 -4 -7 1 -8 5 6 1 4 8 11 12 14 12 12 12 16 16 16 19 21 21 20 20 21 23 24 25 26 28 29 31 34 36 39 42 44 47 49 60 60 60 61 61 59 57
-5 3 2 2 -0 -0 -1 0 7 4 1 9 11 12 13 15 15 16 16 16 18 16 16 18 20 21 21 20 22 24 25 27 28 29 30 31 33 36 39 42 44 46 48 60 59 60 60 60 58
3 2 -1 2 -1 4 -2 1 6 4 5 10 10 10 12 14 15 15 16 16 17 17 16 18 19 19 19 20 21 22 24 25 27 27 28 30 32 34 37 39 40 42 45 50 59 60 60 60 59
-0 -6 -2 -5 2 -9 1 -1 7 9 7 9 10 12 14 16 16 16 16 17 20 20 18 19 19 20 20 20 20 21 22 24 26 26 29 29 30 32 33 36 38 40 43 44 47 59 59 59 59
-2 -2 -2 -11 -8 -6 1 2 11 11 8 12 11 11 10 13 15 15 15 15 17 21 21 19 20 21 21 20 21 22 22 23 25 27 28 29 31 32 32 34 36 37 40 43 45 53 59 59 59
-5 -6 3 4 -0 -2 -6 2 11 13 14 12 10 8 10 11 13 13 13 14 16 12 19 22 19 21 22 21 22 21 22 22 23 25 27 30 30 30 31 32 34 35 38 41 44 47 57 58 59
-3 0 -4 -1 -7 -12 -9 -2 5 7 9 10 9 10 13 11 11 10 11 11 9 11 12 17 22 20 22 24 24 23 23 22 23 24 25 26 29 30 30 31 32 34 35 39 42 45 52 56 57
-0 -2 -4 -3 -2 -6 -9 -1 7 7 9 8 9 12 13 14 12 9 9 8 9 10 11 13 17 21 22 23 24 24 24 24 23 25 25 27 27 28 30 30 31 32 34 37 40 43 46 55 56
4 -0 -2 -5 -6 -6 -3 -1 11 9 10 10 10 9 5 7 7 7 8 8 9 9 10 11 12 15 21 22 23 23 24 24 25 24 27 26 26 28 29 30 30 31 34 35 37 40 45 53 55
Lifted_Index
8 8 9 8 6 4 4 5 6 7 8 8 8 8 8 7 6 2 -3 -5 -5 -5 -5 -5 -5 -6 -6 -6 -5 -5 -5 -5 -5 -5 -5 -5 -5 -4 -4 -3 -3 -3 -2 -2 -2 -1 -1 -2 -2
9 9 9 8 5 4 4 5 6 7 8 8 9 8 7 6 4 1 -3 -5 -5 -5 -5 -5 -5 -5 -5 -5 -5 -5 -5 -5 -5 -5 -5 -5 -5 -4 -4 -3 -3 -3 -3 -2 -2 -2 -1 -1 -1
9 9 9 7 5 4 5 6 7 8 9 9 9 8 6 4 1 -1 -4 -5 -5 -5 -5 -5 -5 -5 -5 -5 -5 -5 -5 -5 -5 -5 -5 -5 -5 -4 -4 -3 -3 -3 -3 -3 -2 -2 -1 -1 -1
10 9 8 6 5 6 6 8 8 9 9 9 9 8 6 4 1 -1 -3 -4 -4 -5 -5 -5 -5 -5 -5 -5 -5 -5 -5 -5 -5 -5 -5 -5 -5 -4 -4 -3 -3 -3 -3 -2 -2 -2 -2 -1 -1
10 9 7 5 6 7 8 9 9 9 9 9 9 9 8 6 3 0 -1 -3 -3 -3 -4 -4 -4 -4 -4 -5 -5 -5 -5 -5 -5 -5 -5 -5 -4 -4 -4 -3 -3 -3 -2 -2 -2 -2 -2 -2 -2
9 8 5 4 6 7 9 10 10 10 10 10 10 10 10 8 6 3 1 -0 -1 -1 -2 -2 -2 -3 -3 -4 -4 -5 -5 -5 -5 -5 -5 -5 -4 -4 -4 -4 -3 -3 -2 -2 -2 -2 -2 -2 -1
9 7 5 5 5 7 9 10 10 10 10 10 10 10 10 10 9 8 5 2 0 0 -0 -1 -1 -2 -2 -3 -4 -4 -4 -5 -5 -5 -5 -5 -4 -4 -4 -4 -4 -3 -2 -2 -2 -2 -2 -2 -1
9 7 6 5 6 7 9 10 10 10 10 11 11 11 11 11 11 11 9 4 2 1 1 1 0 -1 -1 -2 -2 -3 -4 -4 -4 -5 -5 -4 -4 -4 -4 -4 -4 -3 -3 -2 -2 -2 -2 -1 -1
9 8 7 7 8 8 10 10 11 11 11 11 11 12 12 12 12 11 10 7 3 2 3 3 2 1 0 -1 -1 -2 -3 -4 -4 -4 -4 -4 -4 -4 -4 -3 -3 -3 -3 -3 -2 -2 -1 -1 -0
9 8 8 9 10 10 10 11 11 11 11 11 12 13 14 13 12 11 10 8 6 5 6 6 5 4 2 0 -0 -1 -2 -3 -4 -4 -4 -4 -4 -4 -4 -3 -3 -3 -3 -2 -2 -1 -0 1 1
9 9 10 11 11 11 11 11 11 11 11 12 13 14 14 14 13 12 11 10 9 9 9 10 9 7 5 3 1 -0 -1 -2 -3 -4 -4 -4 -4 -4 -4 -4 -3 -3 -2 -2 -1 -0 1 2 2
10 10 11 11 11 11 11 12 12 12 13 14 15 15 15 14 13 13 13 12 12 12 12 12 11 10 8 6 3 1 -0 -1 -2 -3 -4 -4 -4 -4 -4 -4 -4 -3 -2 -2 -1 -0 1 2 3
10 11 11 12 12 12 12 12 12 12 14 16 16 16 15 15 15 15 15 15 14 14 14 14 13 12 11 9 6 3 1 -0 -1 -2 -3 -3 -3 -3 -4 -4 -4 -4 -3 -2 -1 -0 1 2 3
11 11 12 12 12 12 12 11 12 13 15 16 16 16 16 16 16 17 17 17 16 16 16 16 16 14 13 11 9 6 4 1 -0 -1 -1 -2 -3 -3 -4 -4 -4 -4 -4 -3 -2 -1 0 1 2
11 11 11 12 12 12 11 11 11 13 14 15 16 17 17 18 18 18 19 19 19 19 19 19 18 17 15 13 11 9 7 4 2 0 -1 -1 -2 -3 -3 -3 -3 -3 -4 -3 -2 -1 -0 0 1
10 9 9 10 12 12 11 10 12 14 15 15 16 18 19 19 19 20 21 21 21 20 20 20 19 19 18 16 14 12 10 7 4 2 0 -0 -1 -2 -2 -2 -2 -2 -2 -3 -2 -1 -1 -1 -0
7 6 6 8 11 12 11 11 13 16 17 17 18 19 19 19 20 21 22 22 22 22 21 20 20 20 19 18 17 15 12 10 7 5 2 1 -0 -1 -1 -1 -1 -1 -1 -2 -2 -2 -1 -1 -1
6 5 5 8 11 12 11 12 15 17 18 18 19 19 19 20 21 22 23 24 24 23 23 22 21 20 20 19 18 17 15 12 10 8 5 3 1 -0 -1 -1 -1 -1 -1 -1 -1 -2 -2 -1 -1
7 6 7 9 12 13 12 13 16 18 19 19 19 19 19 20 21 22 24 24 24 24 24 23 22 22 21 20 19 18 16 15 12 10 8 6 3 2 0 -1 -2 -2 -1 -1 -1 -1 -2 -2 -1
9 8 8 11 13 14 13 13 16 19 19 19 19 19 19 19 20 21 22 23 24 24 24 24 24 23 23 22 21 20 18 17 15 13 11 9 6 4 2 0 -1 -2 -2 -1 -1 -1 -2 -2 -1
9 10 10 11 12 13 13 13 15 18 19 19 19 19 19 19 19 19 20 21 22 22 23 24 24 24 24 23 22 21 19 18 17 15 13 11 9 6 4 2 0 -1 -1 -2 -2 -2 -2 -1 -1
11 12 13 12 11 12 12 11 14 17 17 18 18 18 18 17 17 17 17 18 19 20 21 22 23 24 24 24 23 21 20 19 18 17 15 13 11 8 6 4 2 0 -1 -2 -2 -2 -1 -1 -1
14 15 15 14 12 11 11 11 13 14 14 14 14 14 14 14 14 14 14 14 15 17 18 19 20 21 23 23 23 22 20 20 19 18 17 15 13 11 8 6 4 2 0 -1 -1 -1 -1 -1 -1
17 15 14 12 11 9 10 11 11 11 10 10 10 10 11 11 11 12 12 12 13 14 14 15 16 18 19 21 21 22 21 20 20 19 18 17 15 13 10 8 6 3 2 0 -1 -1 -1 -0 -0
17 14 9 6 5 6 8 9 8 8 8 8 8 9 9 10 10 10 10 11 11 12 12 13 13 14 15 17 18 20 20 20 20 19 19 18 17 15 13 11 8 5 3 1 0 -0 -1 -0 0
16 13 9 5 4 6 7 6 6 6 6 7 8 9 9 10 10 10 10 10 11 11 11 11 11 11 12 13 14 16 18 19 19 19 19 19 18 17 15 13 10 8 5 3 2 1 -0 -0 -0
16 15 12 9 6 5 5 5 5 5 6 7 8 9 9 9 10 10 10 10 11 11 11 11 10 10 11 11 12 13 14 16 17 18 19 19 19 18 17 14 12 10 7 4 3 2 1 0 -0
16 15 13 10 6 3 3 4 4 5 6 7 8 9 9 10 10 10 11 11 11 11 12 11 11 11 11 11 11 12 13 14 15 16 16 17 18 18 17 15 13 11 9 6 4 2 1 1 0
15 13 11 8 5 3 2 3 5 6 7 8 9 9 10 10 11 11 11 12 12 12 12 12 11 11 11 11 11 12 12 13 14 14 14 15 17 17 16 15 13 12 10 8 5 3 2 1 0
14 12 9 7 5 4 3 4 5 6 7 8 9 10 10 11 11 11 12 12 12 12 12 12 12 11 11 11 12 12 12 13 13 13 13 14 15 16 16 15 13 12 10 9 6 4 2 1 0